Regional Weather Roundup
Issued by NWS

Home | Current Version | Previous Version | Graphics & Text | Print | Product List | Glossary Off
Versions: 1 2 3 4 5 6 7 8 9 10 11 12 13 14 15 16 17 18 19 20 21 22 23 24 25 26 27 28 29 30 31 32 33 34 35 36 37 38 39 40 41 42 43 44 45 46 47 48 49 50

000
ASUS43 KDTX 201810
RWRMI
MICHIGAN HOURLY REGIONAL WEATHER ROUNDUP
NATIONAL WEATHER SERVICE DETROIT/PONTIAC MI
200 PM EDT SAT SEP 20 2014

NOTE: "FAIR" INDICATES FEW OR NO CLOUDS BELOW 12,000 FEET WITH NO
SIGNIFICANT WEATHER AND/OR OBSTRUCTION TO VISIBILITY.

MIZ047>049-052>055-059>063-066>070-074>076-081>083-201900-
SOUTHEAST LOWER MICHIGAN

CITY           SKY/WX    TMP DP  RH WIND       PRES   REMARKS
ADRIAN         SUNNY     78  59  51 SW16G26   29.90F
6HR MIN TEMP:  51; 6HR MAX TEMP:  78;

ALMA           SUNNY     74  61  63 SW12G20   29.81F
ANN ARBOR      SUNNY     78  59  51 SW21G31   29.87F
BAD AXE        PTSUNNY   71  61  70 SW16G26   29.80F
6HR MIN TEMP:  57; 6HR MAX TEMP:  72;

CARO           MOSUNNY   74  61  64 SW17G28   29.80F
DETROIT CITY   SUNNY     78  59  51 SW18G25   29.85F
6HR MIN TEMP:  61; 6HR MAX TEMP:  78;

DETROIT        PTSUNNY   79  60  52 S25       29.88F
6HR MIN TEMP:  53; 6HR MAX TEMP:  79;

FLINT          MOSUNNY   76  61  59 SW16G25   29.85F
6HR MIN TEMP:  61; 6HR MAX TEMP:  78;

GROSSE ILE     SUNNY     75  63  64 S17       29.87F
HILLSDALE      SUNNY     78  61  56 SW12G21   29.90F
6HR MIN TEMP:  58; 6HR MAX TEMP:  78;

HOWELL         PTSUNNY   75  62  62 SW14G21   29.86F
6HR MIN TEMP:  57; 6HR MAX TEMP:  75;


CITY           SKY/WX    TMP DP  RH WIND       PRES   REMARKS
JACKSON        PTSUNNY   75  61  61 SW16G26   29.88S
6HR MIN TEMP:  59; 6HR MAX TEMP:  78;

LAMBERTVILLE   SUNNY     79  59  50 SW15G24   29.90F
LANSING        MOSUNNY   77  61  57 SW22G30   29.85F
6HR MIN TEMP:  61; 6HR MAX TEMP:  77;

LAPEER         MOCLDY    77  59  54 SW13G22   29.85S
MASON          MOSUNNY   75  62  63 SW14G21   29.87F
MONROE         SUNNY     79  61  53 SW20G25   29.87F
MT. CLEMENS    PTSUNNY   77  62  59 S20G26    29.83F
6HR MIN TEMP:  59; 6HR MAX TEMP:  77;

PONTIAC        PTSUNNY   73  59  61 SW13G26   29.86F
6HR MIN TEMP:  59; 6HR MAX TEMP:  74;

PORT HOPE        N/A     73  58  59 SW14G26   29.76F
6HR MIN TEMP:  60; 6HR MAX TEMP:  74;

PORT HURON     MOSUNNY   73  61  64 S17G24    29.86R
TRI CITIES     MOSUNNY   76  60  57 SW14G25   29.81F
6HR MIN TEMP:  65; 6HR MAX TEMP:  76;

TROY           SUNNY     78  58  49 SW14G25   29.88S
SAGINAW HB     MOSUNNY   77  59  53 SW17G23   29.81S
$$
MIZ043>046-050>051-056>058-064>065-071>073-077>080-201900-
SOUTHWEST LOWER MICHIGAN

CITY           SKY/WX    TMP DP  RH WIND       PRES   REMARKS
BATTLE CREEK   MOSUNNY   77  63  61 SW18G26   29.88F
6HR MIN TEMP:  59; 6HR MAX TEMP:  77;

BENTON HARBOR  PTSUNNY   78  65  63 SW13      29.85F
6HR MIN TEMP:  60; 6HR MAX TEMP:  78;

BIG RAPIDS     PTSUNNY   74  64  72 SW9G24    29.77S
6HR MIN TEMP:  63; 6HR MAX TEMP:  74;

COLDWATER      PTSUNNY   77  63  61 SW13G23   29.89F
6HR MIN TEMP:  60; 6HR MAX TEMP:  78;

FREMONT        FAIR      71  60  69 SW17      29.79F
HOLLAND        LGT RAIN  71  64  78 SW14G24   29.83F
6HR MIN TEMP:  64; 6HR MAX TEMP:  72; 6HR PCP: TRACE;

GRAND RAPIDS   PTSUNNY   76  66  71 SW12      29.83F
6HR MIN TEMP:  62; 6HR MAX TEMP:  76;

IONIA          MOCLDY    75  62  64 SW18G26   29.83F
KALAMAZOO      MOSUNNY   79  63  57 SW16G25   29.87F
6HR MIN TEMP:  58; 6HR MAX TEMP:  80;

LUDINGTON      PTSUNNY   69  63  79 SW18G28   29.74F
6HR MIN TEMP:  63; 6HR MAX TEMP:  69;

MARSHALL       PTSUNNY   75  62  64 MISG      29.87F
MOUNT PLEASANT RAIN      74  61  63 S12G20    29.77F
6HR MIN TEMP:  59; 6HR MAX TEMP:  77;

MUSKEGON       PTSUNNY   67  60  78 S17       29.82S
6HR MIN TEMP:  65; 6HR MAX TEMP:  70; 6HR PCP: TRACE;

SOUTH HAVEN    PTSUNNY   76  65  70 SW14      29.84F
$$
MIZ016>042-201900-
NORTHERN LOWER MICHIGAN

CITY           SKY/WX    TMP DP  RH WIND       PRES   REMARKS
ALPENA         CLOUDY    69  59  70 S15G21    29.69F
6HR MIN TEMP:  58; 6HR MAX TEMP:  69; 6HR PCP:  0.07;

BEAVER ISLAND  CLOUDY    65  61  86 SW17G30   29.64F
6HR MIN TEMP:  62; 6HR MAX TEMP:  66;

BELLAIRE       CLOUDY    72  62  70 CALM      29.68F
6HR MIN TEMP:  61; 6HR MAX TEMP:  73;

CADILLAC       PTSUNNY   72  63  74 SW15G21   29.74F
CHARLEVOIX     CLOUDY    70  63  78 SW16G22   29.69S
6HR MIN TEMP:  61; 6HR MAX TEMP:  71;

FRANKFORT      CLOUDY    65  60  82 SW9G18    29.72S
GAYLORD        MOSUNNY   71  60  68 SW16G30   29.70F
6HR MIN TEMP:  57; 6HR MAX TEMP:  72; 6HR PCP: TRACE;

GRAYLING       LGT RAIN  69  62  77 S8        29.73F
6HR MIN TEMP:  56; 6HR MAX TEMP:  69;

HARBOR SPRINGS CLOUDY    69  62  78 W9        29.66F
HOUGHTON LAKE  LGT RAIN  67  60  78 S12       29.75F
6HR MIN TEMP:  59; 6HR MAX TEMP:  68; 6HR PCP: TRACE;

MANISTEE       CLOUDY    70  61  73 SW10G20   29.73S
OSCODA         CLOUDY    71  59  65 SW16G22   29.74F
PELLSTON       CLOUDY    70  62  76 SW14G23   29.67S
6HR MIN TEMP:  60; 6HR MAX TEMP:  70; 6HR PCP:  0.34;

ROGERS CITY    PTSUNNY   72  64  77 SW12G21   29.66F
TRAVERSE CITY  TSTM      72  60  66 SW7G20    29.68S
6HR MIN TEMP:  62; 6HR MAX TEMP:  75; 6HR PCP: TRACE;

$$
MIZ007>008-015-201900-
EASTERN UPPER MICHIGAN

CITY           SKY/WX    TMP DP  RH WIND       PRES   REMARKS
KINROSS        CLOUDY    63  61  94 SW9G21    29.63F
6HR MIN TEMP:  61; 6HR MAX TEMP:  64;

MACKINAC ISLAN CLOUDY    66  62  86 SW20G30   29.64F
6HR MIN TEMP:  60; 6HR MAX TEMP:  66; 6HR PCP:  0.74;

NEWBERRY       CLOUDY    65  60  85 S17G24    29.60S
6HR MIN TEMP:  59; 6HR MAX TEMP:  65;

S. S. MARIE    CLOUDY    66  61  84 SW17G26   29.59F
6HR MIN TEMP:  57; 6HR MAX TEMP:  66; 6HR PCP:  0.01;

MUNISING         N/A     66  59  78 N12G23    29.61R
6HR MIN TEMP:  64; 6HR MAX TEMP:  79; 6HR PCP:  0.01;

$$
MIZ004>006-011>014-085-201900-
CENTRAL UPPER MICHIGAN

CITY           SKY/WX    TMP DP  RH WIND       PRES   REMARKS
MANISTIQUE     PTSUNNY   64  59  85 S14G21    29.60S
ESCANABA       MOSUNNY   79  63  57 W18G25    29.59F
6HR MIN TEMP:  61; 6HR MAX TEMP:  79;

MENOMINEE      MOSUNNY   73  63  68 W5G16     29.65R
6HR MIN TEMP:  63; 6HR MAX TEMP:  73;

SAWYER-GWINN   PTSUNNY   73  57  56 W18       29.61R
$$
MIZ001>003-009>011-084-201900-
WESTERN UPPER MICHIGAN

CITY           SKY/WX    TMP DP  RH WIND       PRES   REMARKS
IRON MOUNTAIN  PTSUNNY   74  56  53 NW17G24   29.65R
6HR MIN TEMP:  66; 6HR MAX TEMP:  78;

HOUGHTON         N/A    N/A N/A N/A MISG        N/A
COPPER HARBOR    N/A     64  56  75 N16G26    29.59R
6HR MIN TEMP:  55; 6HR MAX TEMP:  66; 6HR PCP:  0.08;

IRONWOOD       CLOUDY    64  57  77 NW13G21   29.69R
6HR MIN TEMP:  64; 6HR MAX TEMP:  66;

$$

ABBREVIATIONS USED IN REMARKS
   TC - TEMPERATURE IN CELSIUS
  WCI - WIND CHILL INDEX
   HX - HEAT INDEX
  VSB - VISIBILITY




USA.gov is the U.S. government's official web portal to all federal, state and local government web resources and services.